Time,TemperatureF,DewpointF,PressureIn,WindDirection,WindDirectionDegrees,WindSpeedMPH,WindSpeedGustMPH,Humidity,HourlyPrecipIn,Conditions,Clouds,dailyrainin,SoftwareType,DateUTC
2013-08-28 17:51:00,91.5,72.5,29.93,South,175,1.0,3.0,54,0.00,,,0.00,LWC2 V0.39 B123,2013-08-28 23:51:00,
2013-08-28 17:52:00,91.4,72.4,29.93,ENE,65,1.0,4.0,54,0.00,,,0.00,LWC2 V0.39 B123,2013-08-28 23:52:00,
2013-08-28 17:53:00,91.4,72.4,29.93,WNW,285,1.0,4.0,54,0.00,,,0.00,LWC2 V0.39 B123,2013-08-28 23:53:00,
2013-08-28 17:54:00,91.3,72.3,29.93,SW,217,2.0,3.0,54,0.00,,,0.00,LWC2 V0.39 B123,2013-08-28 23:54:00,
2013-08-28 17:58:00,91.1,72.6,29.93,WNW,284,0.0,4.0,55,0.00,,,0.00,LWC2 V0.39 B123,2013-08-28 23:58:00,
2013-08-28 18:03:00,90.9,72.5,29.93,SSW,204,2.0,2.0,55,0.00,,,0.00,LWC2 V0.39 B123,2013-08-29 00:03:00,
2013-08-28 18:05:00,90.8,72.9,29.93,South,184,0.0,3.0,56,0.00,,,0.00,LWC2 V0.39 B123,2013-08-29 00:05:00,
2013-08-28 18:10:00,90.5,72.6,29.93,SE,131,0.0,2.0,56,0.00,,,0.00,LWC2 V0.39 B123,2013-08-29 00:10:00,
2013-08-28 18:15:00,90.2,72.9,29.93,ESE,117,2.0,2.0,57,0.00,,,0.00,LWC2 V0.39 B123,2013-08-29 00:15:00,
2013-08-28 18:20:00,89.9,72.6,29.93,SSW,194,1.0,3.0,57,0.00,,,0.00,LWC2 V0.39 B123,2013-08-29 00:20:00,
2013-08-28 18:25:00,89.7,72.9,29.93,South,188,0.0,1.0,58,0.00,,,0.00,LWC2 V0.39 B123,2013-08-29 00:25:00,
2013-08-28 18:30:00,89.3,73.1,29.93,South,174,0.0,2.0,59,0.00,,,0.00,LWC2 V0.39 B123,2013-08-29 00:30:00,
2013-08-28 18:35:00,89.0,73.3,29.93,SE,141,0.0,1.0,60,0.00,,,0.00,LWC2 V0.39 B123,2013-08-29 00:35:00,
2013-08-28 18:40:00,88.6,72.9,29.93,South,174,1.0,3.0,60,0.00,,,0.00,LWC2 V0.39 B123,2013-08-29 00:40:00,
2013-08-28 18:45:00,88.3,73.1,29.93,ESE,119,0.0,1.0,61,0.00,,,0.00,LWC2 V0.39 B123,2013-08-29 00:45:00,
2013-08-28 18:50:00,88.0,73.3,29.93,ESE,122,0.0,2.0,62,0.00,,,0.00,LWC2 V0.39 B123,2013-08-29 00:50:00,
2013-08-28 18:55:00,87.7,73.5,29.93,SW,222,0.0,2.0,63,0.00,,,0.00,LWC2 V0.39 B123,2013-08-29 00:55:00,
2013-08-28 19:00:00,87.4,73.2,29.93,ESE,111,1.0,1.0,63,0.00,,,0.00,LWC2 V0.39 B123,2013-08-29 01:00:00,
2013-08-28 19:05:00,87.2,73.5,29.93,ESE,121,1.0,2.0,64,0.00,,,0.00,LWC2 V0.39 B123,2013-08-29 01:05:00,
2013-08-28 19:10:00,86.9,73.2,29.93,SSE,167,1.0,2.0,64,0.00,,,0.00,LWC2 V0.39 B123,2013-08-29 01:10:00,
2013-08-28 19:15:00,86.7,73.5,29.93,SE,134,1.0,2.0,65,0.00,,,0.00,LWC2 V0.39 B123,2013-08-29 01:15:00,
2013-08-28 19:20:00,86.5,73.3,29.94,SE,129,1.0,1.0,65,0.00,,,0.00,LWC2 V0.39 B123,2013-08-29 01:20:00,
2013-08-28 19:25:00,86.4,73.2,29.94,ESE,114,1.0,2.0,65,0.00,,,0.00,LWC2 V0.39 B123,2013-08-29 01:25:00,
2013-08-28 19:30:00,86.2,73.5,29.94,ESE,111,1.0,1.0,66,0.00,,,0.00,LWC2 V0.39 B123,2013-08-29 01:30:00,
2013-08-28 19:35:00,86.0,73.3,29.94,SE,143,0.0,3.0,66,0.00,,,0.00,LWC2 V0.39 B123,2013-08-29 01:35:00,
2013-08-28 19:40:00,85.9,73.2,29.93,SE,124,0.0,2.0,66,0.00,,,0.00,LWC2 V0.39 B123,2013-08-29 01:40:00,
2013-08-28 19:45:00,85.7,73.0,29.94,ESE,118,0.0,2.0,66,0.00,,,0.00,LWC2 V0.39 B123,2013-08-29 01:45:00,
2013-08-28 19:50:00,85.6,73.4,29.94,SE,125,1.0,2.0,67,0.00,,,0.00,LWC2 V0.39 B123,2013-08-29 01:50:00,
2013-08-28 19:55:00,85.4,73.2,29.94,ESE,121,1.0,2.0,67,0.00,,,0.00,LWC2 V0.39 B123,2013-08-29 01:55:00,
2013-08-28 20:00:00,85.3,73.1,29.94,ESE,118,2.0,2.0,67,0.00,,,0.00,LWC2 V0.39 B123,2013-08-29 02:00:00,
2013-08-28 20:05:00,85.2,73.0,29.94,ESE,107,2.0,2.0,67,0.00,,,0.00,LWC2 V0.39 B123,2013-08-29 02:05:00,
2013-08-28 20:10:00,85.0,72.8,29.94,ESE,110,1.0,2.0,67,0.00,,,0.00,LWC2 V0.39 B123,2013-08-29 02:10:00,
2013-08-28 20:15:00,85.0,73.2,29.95,ESE,108,0.0,2.0,68,0.00,,,0.00,LWC2 V0.39 B123,2013-08-29 02:15:00,
2013-08-28 20:20:00,84.8,73.0,29.94,ESE,113,1.0,2.0,68,0.00,,,0.00,LWC2 V0.39 B123,2013-08-29 02:20:00,
2013-08-28 20:25:00,84.6,72.8,29.94,ESE,105,1.0,2.0,68,0.00,,,0.00,LWC2 V0.39 B123,2013-08-29 02:25:00,
2013-08-28 20:30:00,84.4,73.1,29.94,ESE,115,2.0,2.0,69,0.00,,,0.00,LWC2 V0.39 B123,2013-08-29 02:30:00,
2013-08-28 20:35:00,84.2,72.9,29.95,East,101,1.0,2.0,69,0.00,,,0.00,LWC2 V0.39 B123,2013-08-29 02:35:00,
2013-08-28 20:40:00,84.1,72.8,29.95,ESE,108,1.0,2.0,69,0.00,,,0.00,LWC2 V0.39 B123,2013-08-29 02:40:00,
2013-08-28 20:45:00,83.9,73.0,29.95,ESE,114,2.0,3.0,70,0.00,,,0.00,LWC2 V0.39 B123,2013-08-29 02:45:00,
2013-08-28 20:50:00,83.7,72.8,29.95,ESE,113,1.0,1.0,70,0.00,,,0.00,LWC2 V0.39 B123,2013-08-29 02:50:00,
2013-08-28 20:55:00,83.7,72.8,29.95,ESE,119,1.0,3.0,70,0.00,,,0.00,LWC2 V0.39 B123,2013-08-29 02:55:00,
2013-08-28 21:00:00,83.6,73.2,29.95,SE,143,1.0,3.0,71,0.00,,,0.00,LWC2 V0.39 B123,2013-08-29 03:00:00,
2013-08-28 21:05:00,83.5,73.1,29.95,SE,146,2.0,3.0,71,0.00,,,0.00,LWC2 V0.39 B123,2013-08-29 03:05:00,
2013-08-28 21:10:00,83.4,73.0,29.95,ESE,114,2.0,3.0,71,0.00,,,0.00,LWC2 V0.39 B123,2013-08-29 03:10:00,
2013-08-28 21:15:00,83.4,73.0,29.95,SE,127,2.0,2.0,71,0.00,,,0.00,LWC2 V0.39 B123,2013-08-29 03:15:00,
2013-08-28 21:20:00,83.3,72.9,29.95,ESE,103,2.0,3.0,71,0.00,,,0.00,LWC2 V0.39 B123,2013-08-29 03:20:00,
2013-08-28 21:25:00,83.2,72.8,29.95,SE,128,2.0,2.0,71,0.00,,,0.00,LWC2 V0.39 B123,2013-08-29 03:25:00,
2013-08-28 21:30:00,83.0,73.0,29.95,ESE,122,2.0,3.0,72,0.00,,,0.00,LWC2 V0.39 B123,2013-08-29 03:30:00,
2013-08-28 21:35:00,82.9,72.9,29.95,ESE,114,2.0,4.0,72,0.00,,,0.00,LWC2 V0.39 B123,2013-08-29 03:35:00,
2013-08-28 21:40:00,82.7,72.7,29.95,ESE,115,2.0,3.0,72,0.00,,,0.00,LWC2 V0.39 B123,2013-08-29 03:40:00,
2013-08-28 21:45:00,82.4,72.8,29.95,ESE,103,1.0,1.0,73,0.00,,,0.00,LWC2 V0.39 B123,2013-08-29 03:45:00,
2013-08-28 21:50:00,82.1,72.6,29.95,ESE,115,1.0,2.0,73,0.00,,,0.00,LWC2 V0.39 B123,2013-08-29 03:50:00,
2013-08-28 21:55:00,81.9,72.8,29.95,SE,131,2.0,2.0,74,0.00,,,0.00,LWC2 V0.39 B123,2013-08-29 03:55:00,
2013-08-28 22:00:00,81.8,72.7,29.95,ESE,116,1.0,2.0,74,0.00,,,0.00,LWC2 V0.39 B123,2013-08-29 04:00:00,
2013-08-28 22:01:00,81.8,72.7,29.95,SE,125,1.0,2.0,74,0.00,,,0.00,LWC2 V0.39 B123,2013-08-29 04:01:00,
2013-08-28 22:03:00,81.7,72.6,29.95,ESE,115,1.0,2.0,74,0.00,,,0.00,LWC2 V0.39 B123,2013-08-29 04:03:00,
2013-08-28 22:06:00,81.6,72.9,29.95,ESE,110,1.0,2.0,75,0.00,,,0.00,LWC2 V0.39 B123,2013-08-29 04:06:00,
2013-08-28 22:08:00,81.6,72.9,29.95,ESE,110,1.0,2.0,75,0.00,,,0.00,LWC2 V0.39 B123,2013-08-29 04:08:00,
2013-08-28 22:11:00,81.5,72.8,29.94,ESE,108,1.0,1.0,75,0.00,,,0.00,LWC2 V0.39 B123,2013-08-29 04:11:00,
2013-08-28 22:16:00,81.3,72.6,29.94,ESE,113,1.0,3.0,75,0.00,,,0.00,LWC2 V0.39 B123,2013-08-29 04:16:00,
2013-08-28 22:21:00,81.5,72.8,29.95,ESE,118,1.0,2.0,75,0.00,,,0.00,LWC2 V0.39 B123,2013-08-29 04:21:00,
2013-08-28 22:25:00,81.5,72.8,29.95,ESE,104,1.0,2.0,75,0.00,,,0.00,LWC2 V0.39 B123,2013-08-29 04:25:00,
2013-08-28 22:30:00,81.4,72.7,29.95,ESE,114,1.0,2.0,75,0.00,,,0.00,LWC2 V0.39 B123,2013-08-29 04:30:00,
2013-08-28 22:35:00,81.4,72.7,29.95,ESE,114,1.0,2.0,75,0.00,,,0.00,LWC2 V0.39 B123,2013-08-29 04:35:00,
2013-08-28 22:40:00,81.5,72.8,29.95,ESE,108,1.0,2.0,75,0.00,,,0.00,LWC2 V0.39 B123,2013-08-29 04:40:00,
2013-08-28 22:45:00,81.4,72.7,29.95,ESE,107,0.0,1.0,75,0.00,,,0.00,LWC2 V0.39 B123,2013-08-29 04:45:00,
2013-08-28 22:50:00,81.2,72.9,29.95,ESE,105,1.0,1.0,76,0.00,,,0.00,LWC2 V0.39 B123,2013-08-29 04:50:00,
2013-08-28 22:55:00,80.9,72.6,29.95,ESE,115,1.0,2.0,76,0.00,,,0.00,LWC2 V0.39 B123,2013-08-29 04:55:00,
2013-08-28 23:00:00,80.6,72.7,29.95,ESE,114,0.0,1.0,77,0.00,,,0.00,LWC2 V0.39 B123,2013-08-29 05:00:00,
2013-08-28 23:05:00,80.4,72.9,29.95,ESE,111,0.0,1.0,78,0.00,,,0.00,LWC2 V0.39 B123,2013-08-29 05:05:00,
2013-08-28 23:10:00,80.2,72.7,29.95,ESE,112,0.0,0.0,78,0.00,,,0.00,LWC2 V0.39 B123,2013-08-29 05:10:00,
2013-08-28 23:15:00,80.0,72.5,29.95,ESE,111,1.0,1.0,78,0.00,,,0.00,LWC2 V0.39 B123,2013-08-29 05:15:00,
2013-08-28 23:20:00,79.9,72.8,29.95,ESE,111,0.0,1.0,79,0.00,,,0.00,LWC2 V0.39 B123,2013-08-29 05:20:00,
2013-08-28 23:25:00,79.8,72.7,29.95,ESE,108,1.0,2.0,79,0.00,,,0.00,LWC2 V0.39 B123,2013-08-29 05:25:00,
2013-08-28 23:30:00,79.8,72.7,29.95,ESE,110,2.0,2.0,79,0.00,,,0.00,LWC2 V0.39 B123,2013-08-29 05:30:00,
2013-08-28 23:35:00,79.7,73.0,29.95,ESE,104,1.0,1.0,80,0.00,,,0.00,LWC2 V0.39 B123,2013-08-29 05:35:00,
2013-08-28 23:40:00,79.4,72.7,29.95,ESE,105,1.0,2.0,80,0.00,,,0.00,LWC2 V0.39 B123,2013-08-29 05:40:00,
2013-08-28 23:45:00,79.3,72.6,29.95,East,98,1.0,2.0,80,0.00,,,0.00,LWC2 V0.39 B123,2013-08-29 05:45:00,
2013-08-28 23:50:00,79.2,72.5,29.95,ESE,122,2.0,2.0,80,0.00,,,0.00,LWC2 V0.39 B123,2013-08-29 05:50:00,
2013-08-28 23:55:00,79.0,72.7,29.95,ESE,115,2.0,2.0,81,0.00,,,0.00,LWC2 V0.39 B123,2013-08-29 05:55:00,